Home   Weather   Trondheim   Past weeks

Flag for Norway Past Weather in Trondheim, Norway — Yesterday and Last 2 Weeks

Now
39 °F

Scattered showers. Broken clouds.


Feels Like: 28 °F
Forecast: 27 / 43 °F
Wind: 26 mph from West

Location: Trondheim / Vaernes

Current Time: Apr 23, 2017 at 4:21:18 pm

Latest Report: Apr 23, 2017 at 3:20 pm


Visibility: N/A

Pressure: 29.77 "Hg

Humidity: 75%

Dew Point: 32 °F

Location of TrondheimLocation

Past Weather in Trondheim — Graph

°F

Trondheim Temperature Yesterday

Maximum temperature yesterday: 41 °F (at 12:20 pm)
Minimum temperature yesterday: 34 °F (at 5:20 am)
Average temperature yesterday: 36 °F

High & Low Weather Summary for the Past Weeks

 TemperatureHumidityPressure
High48 °F (Apr 8, 2:50 pm)100% (Apr 9, 11:50 pm)30.51 "Hg (Apr 9, 11:50 pm)
Low27 °F (Apr 15, 4:50 am)34% (Apr 17, 4:20 pm)29.39 "Hg (Apr 10, 11:50 am)
Average38 °F69%29.83 "Hg
* Reported Apr 8 2:20 pm — Apr 23 2:50 pm, Trondheim, Weather by CustomWeather, © 2017

Note: Actual official high and low records may vary slightly from our data, if they occured in-between our weather recording intervals... More about our weather records

Advertising

Trondheim Weather History for the Previous 24 Hours

Scroll right to see more
 ConditionsComfort  
Time TempWeatherWind HumidityBarometerVisibility
2:50 pm
Sun, Apr 23
37 °FScattered showers. Broken clouds.23 mph93%29.77 "HgN/A
1:50 pm37 °FScattered showers. Broken clouds.17 mph81%29.77 "HgN/A
1:20 pm37 °FScattered showers. Partly sunny.29 mph81%29.77 "HgN/A
12:50 pm39 °FScattered showers. Broken clouds.31 mph75%29.77 "HgN/A
12:20 pm36 °FScattered showers. More clouds than sun.26 mph87%29.77 "HgN/A
11:50 am36 °FScattered showers. Broken clouds.26 mph87%29.77 "HgN/A
11:20 am36 °FScattered showers. Broken clouds.24 mph87%29.77 "HgN/A
10:50 am37 °FScattered showers. Broken clouds.24 mph75%29.77 "HgN/A
10:20 am36 °FSnow flurries. More clouds than sun.21 mph81%29.77 "HgN/A
9:50 am34 °FScattered showers. Broken clouds.22 mph93%29.77 "HgN/A
9:20 am34 °FSnow showers. Broken clouds.26 mph87%29.77 "Hg1 mi
8:50 am36 °FScattered showers. Mostly cloudy.23 mph81%29.77 "HgN/A
8:20 am34 °FScattered showers. Broken clouds.18 mph87%29.77 "HgN/A
7:50 am34 °FLight snow. Partly sunny.24 mph87%29.74 "HgN/A
7:20 am34 °FSnow showers. Broken clouds.23 mph87%29.77 "Hg1 mi
6:50 am36 °FScattered showers. Scattered clouds.18 mph81%29.74 "HgN/A
4:50 am34 °FScattered showers. Mostly cloudy.18 mph93%29.77 "Hg4 mi
2:50 am34 °FPassing clouds.16 mph93%29.77 "HgN/A
1:50 am36 °FMostly cloudy.17 mph87%29.77 "HgN/A
12:50 am34 °FMostly cloudy.15 mph93%29.77 "HgN/A
12:20 am34 °FSprinkles. Mostly cloudy.18 mph100%29.77 "HgN/A
11:50 pm
Sat, Apr 22
34 °FSprinkles. Dense fog.15 mph93%29.80 "Hg1 mi
11:20 pm34 °FSprinkles. Mostly cloudy.17 mph93%29.80 "Hg3 mi
10:50 pm34 °FSprinkles. Mostly cloudy.15 mph93%29.80 "Hg4 mi
10:20 pm34 °FRain showers. Dense fog.17 mph93%29.80 "Hg1 mi
9:50 pm36 °FPartly cloudy.15 mph93%29.80 "HgN/A
9:20 pm34 °FPartly cloudy.12 mph100%29.80 "HgN/A
8:20 pm36 °FRain showers. Broken clouds.15 mph87%29.80 "HgN/A
7:50 pm37 °FScattered showers. Broken clouds.18 mph87%29.83 "HgN/A
7:20 pm37 °FScattered showers. Broken clouds.17 mph87%29.83 "HgN/A
6:50 pm36 °FSprinkles. Broken clouds.21 mph87%29.83 "HgN/A
6:20 pm37 °FScattered showers. Broken clouds.32 mph81%29.83 "HgN/A
5:50 pm39 °FScattered showers. Scattered clouds.13 mph75%29.83 "HgN/A
5:20 pm37 °FScattered showers. Scattered clouds.14 mph81%29.83 "HgN/A
4:50 pm39 °FScattered showers. Partly sunny.21 mph75%29.83 "HgN/A
4:20 pm37 °FScattered showers. Broken clouds.9 mph87%29.83 "HgN/A
Weather by CustomWeather, © 2017

See weather overviewHow to use our weather pages